Content
SEND FEEDBACK

Daily
Averages
Monthly
Summary
United States of America

CHAMPAIGN, ILLINOIS


Home > North America > United States > Illinois
Elevation: 736 feet     Latitude: 40 05N     Longitude: 088 13W

WEATHER
 
SELECT A DAY
Number of Records: 195,404;   Date Range: 1/1/95 - 7/7/14
 
SHARE

PRINT THIS DATA

[ ← Previous Day ]
WEATHER ALMANAC - FEBRUARY 10, 2013
[ Next Day → ]
[ °C ]   °F
Weather ElementAverageHighLow
Temperature43.6 °F51.1 °F (8:53 pm)33.8 °F (4:02 am)
Dewpoint41 °F48.9 °F (8:53 pm)30 °F (1:53 am)
Humidity90.7 %100 % (4:02 am)79 % (11:53 pm)
Barometer29.78 in30.10 in (1:53 am)29.61 in (7:10 pm)
Wind Speed18.6 mph28.8 mph (2:53 pm)
Wind Gust40.3 mph (2:53 pm)
Weather ElementAverage
Visibility7.2 mi
Wind DirectionSSE (157 °)

Weather ElementTotal
Precipitation0.61 in
Heating Degree Days22.6 (Base 65)
Averaged from 37 records on February 10, 2013
WEATHER CONDITIONS BREAKOUT
WIND DIRECTION BREAKOUT
WEATHER BY HOUR - FEBRUARY 10, 2013
[ °C ]   °F
Local TimeTemperatureDewpointHumidityBarometerVisibilityWind DirectionWind SpeedGust SpeedPrecipitationEventsConditions
1:53 AM34.0 °F30.0 °F85 %30.10 in9.0 miESE (110°)8.1 mph0.00 inRainLight Rain
2:53 AM34.0 °F30.9 °F89 %30.07 in5.0 miSE (140°)8.1 mph0.03 inRainLight Rain
3:29 AM35.6 °F33.8 °F93 %30.03 in4.0 miSE (130°)8.1 mph0.06 inRainRain
3:53 AM34.0 °F33.1 °F96 %30.04 in4.0 miESE (120°)11.5 mph0.10 inRainLight Rain
4:02 AM33.8 °F33.8 °F100 %30.01 in4.0 miESE (120°)12.7 mph0.01 inRainLight Rain
4:53 AM34.0 °F33.1 °F96 %30.01 in4.0 miESE (120°)12.7 mph0.04 inRainLight Rain
5:53 AM35.1 °F34.0 °F96 %29.99 in6.0 miSE (130°)12.7 mph0.01 inRainLight Rain
6:53 AM36.0 °F33.1 °F89 %29.97 in10.0 miSE (130°)13.8 mph0.00 inRainLight Rain
7:18 AM35.6 °F33.8 °F93 %29.93 in10.0 miSE (130°)13.8 mph0.00 inRainLight Rain
7:53 AM37.0 °F33.1 °F86 %29.94 in10.0 miESE (120°)13.8 mph0.00 inOvercast
8:27 AM37.4 °F35.6 °F93 %29.91 in8.0 miSE (130°)15.0 mph0.00 inRainLight Rain
8:53 AM39.0 °F36.0 °F89 %29.91 in9.0 miSE (130°)11.5 mph0.02 inRainLight Rain
9:38 AM41.0 °F37.4 °F87 %29.84 in10.0 miSE (130°)15.0 mphMostly Cloudy
9:53 AM43.0 °F39.0 °F86 %29.86 in9.0 miSE (140°)12.7 mph19.6 mph0.00 inRainLight Rain
10:53 AM44.1 °F39.9 °F85 %29.84 in4.0 miSSE (150°)23.0 mph27.6 mph0.12 inRainRain
11:53 AM45.0 °F41.0 °F86 %29.80 in2.5 miSSE (150°)20.7 mph28.8 mph0.07 inRainRain
12:06 PM44.6 °F41.0 °F87 %29.76 in3.0 miSSE (150°)23.0 mph28.8 mph0.02 inRainRain
12:53 PM46.0 °F43.0 °F89 %29.73 in7.0 miSSE (150°)27.6 mph39.1 mph0.09 inRainLight Rain
1:05 PM46.4 °F42.8 °F87 %29.71 in7.0 miSSE (160°)26.5 mph36.8 mph0.00 inRainLight Rain
1:53 PM46.0 °F43.0 °F89 %29.68 in9.0 miSSE (150°)25.3 mph35.7 mph0.00 inOvercast
2:53 PM46.9 °F44.1 °F90 %29.65 in10.0 miSSE (150°)28.8 mph40.3 mphOvercast
3:53 PM46.9 °F45.0 °F93 %29.64 in2.5 miSSE (160°)23.0 mph31.1 mph0.00 inOvercast
4:11 PM46.4 °F46.4 °F100 %29.62 in1.5 miSSE (160°)21.9 mph33.4 mph0.01 inOvercast
4:26 PM48.2 °F46.4 °F93 %29.62 in1.8 miSouth (170°)23.0 mph29.9 mph0.01 inRainLight Rain
4:32 PM48.2 °F46.4 °F93 %29.62 in3.0 miSouth (170°)25.3 mph31.1 mph0.01 inRainLight Rain
4:53 PM48.0 °F46.9 °F96 %29.64 in3.0 miSouth (170°)23.0 mph33.4 mph0.01 inRainLight Rain
5:53 PM50.0 °F46.9 °F89 %29.65 in10.0 miSouth (180°)23.0 mph31.1 mph0.00 inOvercast
6:53 PM50.0 °F48.0 °F93 %29.63 in10.0 miSouth (180°)19.6 mph29.9 mphOvercast
7:10 PM50.0 °F48.2 °F94 %29.61 in10.0 miSouth (180°)21.9 mph28.8 mphMostly Cloudy
7:33 PM50.0 °F48.2 °F94 %29.61 in10.0 miSouth (180°)23.0 mph28.8 mphOvercast
7:53 PM50.0 °F48.0 °F93 %29.62 in10.0 miSouth (190°)21.9 mphOvercast
8:53 PM51.1 °F48.9 °F92 %29.63 in10.0 miSouth (190°)24.2 mph31.1 mphMostly Cloudy
9:26 PM50.0 °F48.2 °F94 %29.62 in10.0 miSouth (190°)20.7 mph29.9 mphScattered Clouds
9:53 PM50.0 °F48.0 °F93 %29.64 in10.0 miSSW (200°)19.6 mphClear
10:48 PM50.0 °F46.4 °F87 %29.63 in10.0 miSSW (210°)19.6 mphPartly Cloudy
10:53 PM50.0 °F45.0 °F83 %29.64 in10.0 miSSW (210°)19.6 mphPartly Cloudy
11:53 PM46.0 °F39.9 °F79 %29.66 in10.0 miSW (230°)16.1 mphClear
Hourly data recorded from KCMI, located miles away from Champaign, Illinois







STORIES FROM OUR PARTNERS